Quincy Muni, Quincy, FL, FL

4:47 PM EDT on March 27, 2017 (GMT -0400)
Quincy Muni, Quincy, FL

Weather History for K2J9 - August, 2014

Change the Weather History Date:

Wednesday, August 13, 2014

  Actual Average (KTLH) Record (KTLH)
Temperature  
Mean Temperature 84 °F -  
Max Temperature 95 °F 89 °F 100 °F (1999)
Min Temperature 73 °F 70 °F 62 °F (1931)
Cooling Degree Days 19    
Growing Degree Days 34 (Base 50)    
Moisture  
Dew Point 75 °F    
Average Humidity 80    
Maximum Humidity 100    
Minimum Humidity 53    
Precipitation  
Precipitation 0.00 in - - ()
Sea Level Pressure  
Sea Level Pressure 29.97 in    
Wind  
Wind Speed 1 mph (South)    
Max Wind Speed 12 mph    
Max Gust Speed -    
Visibility 9 miles    
Events      
Averages and records for this station are not official NWS values.
T = Trace of Precipitation, MM = Missing Value Source: NWS Daily Summary

Daily Weather History Graph

Daily Weather History Graph

Search for Another Location

Airport or City:

Trip Planner

Search our weather history database for the weather conditions in past years. The results will help you decide how hot, cold, wet, or windy it might be!

Date:

Astronomy

Aug. 13, 2014 Rise Set
Actual Time 7:03 AM EDT 8:22 PM EDT
Civil Twilight 6:38 AM EDT 8:47 PM EDT
Nautical Twilight 6:07 AM EDT 9:17 PM EDT
Astronomical Twilight 5:36 AM EDT 9:49 PM EDT
Moon 10:26 PM EDT (8/13) 10:13 AM EDT (8/13)
Length of Visible Light 14h 09m
Length of Day
13h 18m
Waning Gibbous, 88% of the Moon is Illuminated
Aug 13
Waning Gibbous
Aug 17
Last Quarter
Aug 25
New
Sep 2
First Quarter
Sep 8
Full

Hourly Weather History & Observations

Time (EDT) Temp. Heat Index Dew Point Humidity Pressure Visibility Wind Dir Wind Speed Gust Speed Precip Events Conditions
12:15 AM 77.0 °F - 75.2 °F 94% 29.97 in 10.0 mi Calm Calm - N/A   Mostly Cloudy
12:35 AM 77.0 °F - 75.2 °F 94% 29.97 in 10.0 mi Calm Calm - N/A   Scattered Clouds
12:55 AM 77.0 °F - 75.2 °F 94% 29.96 in 10.0 mi Calm Calm - N/A   Scattered Clouds
1:15 AM 77.0 °F - 75.2 °F 94% 29.96 in 10.0 mi Calm Calm - N/A   Scattered Clouds
1:35 AM 77.0 °F - 75.2 °F 94% 29.96 in 10.0 mi SSW 5.8 mph - N/A   Scattered Clouds
1:55 AM 77.0 °F - 75.2 °F 94% 29.96 in 10.0 mi Calm Calm - N/A   Mostly Cloudy
2:15 AM 77.0 °F - 75.2 °F 94% 29.96 in 10.0 mi Calm Calm - N/A   Mostly Cloudy
2:35 AM 77.0 °F - 75.2 °F 94% 29.96 in 10.0 mi Calm Calm - N/A   Mostly Cloudy
2:55 AM 77.0 °F - 75.2 °F 94% 29.96 in 10.0 mi Calm Calm - N/A   Overcast
3:15 AM 75.2 °F - 75.2 °F 100% 29.96 in 10.0 mi Calm Calm - N/A   Mostly Cloudy
3:35 AM 75.2 °F - 73.4 °F 94% 29.96 in 9.0 mi Calm Calm - N/A   Mostly Cloudy
3:55 AM 75.2 °F - 73.4 °F 94% 29.95 in 8.0 mi Calm Calm - N/A   Scattered Clouds
4:15 AM 75.2 °F - 73.4 °F 94% 29.95 in 8.0 mi Calm Calm - N/A   Mostly Cloudy
4:55 AM 73.4 °F - 73.4 °F 100% 29.95 in 7.0 mi Calm Calm - N/A   Mostly Cloudy
5:15 AM 73.4 °F - 73.4 °F 100% 29.95 in 7.0 mi Calm Calm - N/A   Partly Cloudy
5:35 AM 73.4 °F - 73.4 °F 100% 29.95 in 7.0 mi Calm Calm - N/A   Clear
5:55 AM 73.4 °F - 73.4 °F 100% 29.96 in 7.0 mi Calm Calm - N/A   Clear
6:15 AM 73.4 °F - 73.4 °F 100% 29.97 in 8.0 mi Calm Calm - N/A   Clear
6:35 AM 73.4 °F - 73.4 °F 100% 29.97 in 7.0 mi Calm Calm - N/A   Clear
6:55 AM 73.4 °F - 73.4 °F 100% 29.98 in 5.0 mi Calm Calm - N/A   Clear
7:15 AM 73.4 °F - 73.4 °F 100% 29.98 in 5.0 mi Calm Calm - N/A   Clear
7:35 AM 75.2 °F - 75.2 °F 100% 29.98 in 7.0 mi Calm Calm - N/A   Clear
8:15 AM 78.8 °F - 77.0 °F 94% 29.98 in 9.0 mi Calm Calm - N/A   Mostly Cloudy
8:35 AM 80.6 °F 88.1 °F 78.8 °F 94% 30.00 in 9.0 mi Calm Calm - N/A   Mostly Cloudy
9:35 AM 89.6 °F 102.2 °F 77.0 °F 66% 30.00 in 9.0 mi Calm Calm - N/A   Scattered Clouds
10:15 AM 89.6 °F 99.8 °F 75.2 °F 62% 30.00 in 10.0 mi Calm Calm - N/A   Scattered Clouds
10:55 AM 87.8 °F 97.6 °F 75.2 °F 66% 30.01 in 10.0 mi Calm Calm - N/A   Mostly Cloudy
11:15 AM 89.6 °F 99.8 °F 75.2 °F 62% 30.01 in 10.0 mi Calm Calm - N/A   Scattered Clouds
11:35 AM 87.8 °F 97.6 °F 75.2 °F 66% 30.00 in 10.0 mi Calm Calm - N/A   Scattered Clouds
11:55 AM 89.6 °F 102.2 °F 77.0 °F 66% 30.00 in 10.0 mi South 5.8 mph - N/A   Partly Cloudy
12:15 PM 91.4 °F 102.5 °F 75.2 °F 59% 29.99 in 10.0 mi SSE 4.6 mph - N/A   Clear
12:35 PM 91.4 °F 105.1 °F 77.0 °F 63% 30.00 in 10.0 mi SSE 9.2 mph - N/A   Scattered Clouds
12:55 PM 89.6 °F 102.2 °F 77.0 °F 66% 29.99 in 10.0 mi South 6.9 mph - N/A   Partly Cloudy
1:15 PM 91.4 °F 102.5 °F 75.2 °F 59% 29.99 in 10.0 mi South 3.5 mph - N/A   Clear
2:15 PM 95.0 °F 107.4 °F 75.2 °F 53% 29.96 in 10.0 mi South 5.8 mph - N/A   Mostly Cloudy
2:35 PM 93.2 °F 105.0 °F 75.2 °F 56% 29.95 in 10.0 mi Calm Calm - N/A   Overcast
2:55 PM 95.0 °F 107.4 °F 75.2 °F 53% 29.95 in 10.0 mi Calm Calm - N/A   Mostly Cloudy
3:15 PM 93.2 °F 107.2 °F 77.0 °F 59% 29.95 in 10.0 mi Calm Calm - N/A   Overcast
3:55 PM 93.2 °F 107.2 °F 77.0 °F 59% 29.94 in 10.0 mi Calm Calm - N/A   Clear
4:15 PM 91.4 °F 102.5 °F 75.2 °F 59% 29.93 in 9.0 mi South 6.9 mph - N/A   Partly Cloudy
4:35 PM 87.8 °F 97.6 °F 75.2 °F 66% 29.94 in 10.0 mi SE 3.5 mph - N/A   Scattered Clouds
4:55 PM 89.6 °F 99.8 °F 75.2 °F 62% 29.95 in 10.0 mi ESE 5.8 mph - N/A   Partly Cloudy
5:15 PM 91.4 °F 102.5 °F 75.2 °F 59% 29.94 in 10.0 mi SSE 11.5 mph - N/A   Clear
5:35 PM 86.0 °F 95.1 °F 75.2 °F 70% 29.95 in 10.0 mi SSE 6.9 mph - N/A   Partly Cloudy
5:55 PM 82.4 °F 88.2 °F 73.4 °F 74% 29.95 in 10.0 mi Calm Calm - N/A   Clear
6:15 PM 86.0 °F 95.1 °F 75.2 °F 70% 29.95 in 10.0 mi SSE 4.6 mph - N/A   Clear
6:55 PM 91.4 °F 102.5 °F 75.2 °F 59% 29.95 in 10.0 mi Calm Calm - N/A   Clear
7:15 PM 87.8 °F 97.6 °F 75.2 °F 66% 29.95 in 10.0 mi Calm Calm - N/A   Clear
7:35 PM 84.2 °F 92.3 °F 75.2 °F 74% 29.96 in 10.0 mi Calm Calm - N/A   Clear
7:55 PM 82.4 °F 89.5 °F 75.2 °F 79% 29.96 in 10.0 mi Calm Calm - N/A   Clear
8:55 PM 77.0 °F - 73.4 °F 89% 29.97 in 10.0 mi Calm Calm - N/A   Scattered Clouds
10:55 PM 78.8 °F - 71.6 °F 78% 29.99 in 10.0 mi West 4.6 mph - N/A   Overcast
11:55 PM 77.0 °F - 73.4 °F 89% 30.00 in 9.0 mi Calm Calm - N/A   Overcast